When you browse on this site, cookies collect data to enhance your experience and personalize the content and advertising you see.
Visit our Privacy Policy to learn more. By continuing to use the site, you agree to this use of cookies and data.
  • In Hungary
  • List of Countries
  • For 7 days
  • Water Temperature
  • Weather Map
  • News
  • Weather Widgets
  • user-avatar
    Login

    Hourly Weather Sliedrecht

    Today, 18 August, Sunday

    Time Temperature Precipitation Wind Pressure Humidity
    00:00 +16°C° 0 mm 2 mps 754 mmHg 87%
    01:00 +16°C° 0.1 mm 3 mps 754 mmHg 87%
    02:00 +16°C° 0.1 mm 3 mps 754 mmHg 88%
    03:00 +16°C° 0.1 mm 3 mps 753 mmHg 89%
    04:00 +16°C° 0.3 mm 3 mps 753 mmHg 90%
    05:00 +16°C° 0.3 mm 2 mps 753 mmHg 91%
    06:00 +16°C° 0.3 mm 2 mps 753 mmHg 92%
    07:00 +17°C° 0.4 mm 2 mps 753 mmHg 92%
    08:00 +17°C° 0.4 mm 2 mps 753 mmHg 91%
    09:00 +17°C° 0.4 mm 3 mps 753 mmHg 91%
    10:00 +17°C° 0.2 mm 3 mps 753 mmHg 89%
    11:00 +18°C° 0.2 mm 3 mps 753 mmHg 86%
    12:00 +18°C° 0.2 mm 3 mps 753 mmHg 83%
    13:00 +19°C° 0.2 mm 4 mps 753 mmHg 78%
    14:00 +20°C° 0.2 mm 5 mps 754 mmHg 73%
    15:00 +21°C° 0.2 mm 6 mps 754 mmHg 69%
    16:00 +20°C° 0 mm 6 mps 754 mmHg 69%
    17:00 +20°C° 0 mm 5 mps 755 mmHg 69%
    18:00 +19°C° 0 mm 5 mps 755 mmHg 69%
    19:00 +17°C° 0 mm 5 mps 755 mmHg 70%
    20:00 +16°C° 0 mm 5 mps 756 mmHg 71%
    21:00 +15°C° 0 mm 5 mps 756 mmHg 72%
    22:00 +15°C° 0 mm 5 mps 757 mmHg 75%
    23:00 +14°C° 0 mm 5 mps 757 mmHg 78%

    Tomorrow, 19 August, Monday

    Time Temperature Precipitation Wind Pressure Humidity
    00:00 +14°C° 0 mm 5 mps 757 mmHg 81%
    01:00 +14°C° 0.1 mm 5 mps 758 mmHg 81%
    02:00 +14°C° 0.1 mm 5 mps 758 mmHg 82%
    03:00 +14°C° 0.1 mm 5 mps 758 mmHg 82%
    04:00 +14°C° 0 mm 5 mps 758 mmHg 81%
    05:00 +14°C° 0 mm 5 mps 759 mmHg 81%
    06:00 +14°C° 0 mm 5 mps 759 mmHg 80%
    07:00 +16°C° 0.1 mm 6 mps 759 mmHg 75%
    08:00 +17°C° 0.1 mm 6 mps 760 mmHg 71%
    09:00 +18°C° 0.1 mm 7 mps 760 mmHg 66%
    10:00 +20°C° 0.1 mm 7 mps 760 mmHg 63%
    11:00 +21°C° 0.1 mm 7 mps 761 mmHg 60%
    12:00 +21°C° 0.1 mm 7 mps 761 mmHg 57%
    13:00 +21°C° 0.1 mm 6 mps 761 mmHg 56%
    14:00 +21°C° 0.1 mm 6 mps 761 mmHg 56%
    15:00 +21°C° 0.1 mm 5 mps 761 mmHg 55%
    16:00 +20°C° 0 mm 5 mps 761 mmHg 60%
    17:00 +19°C° 0 mm 4 mps 762 mmHg 64%
    18:00 +18°C° 0 mm 3 mps 762 mmHg 69%
    19:00 +18°C° 0 mm 3 mps 762 mmHg 72%
    20:00 +17°C° 0 mm 3 mps 762 mmHg 76%
    21:00 +16°C° 0 mm 3 mps 762 mmHg 79%
    22:00 +14°C° 0 mm 4 mps 762 mmHg 81%
    23:00 +14°C° 0 mm 4 mps 763 mmHg 83%

    Day after tomorrow, 20 August, Tuesday

    Time Temperature Precipitation Wind Pressure Humidity
    00:00 +14°C° 0 mm 5 mps 763 mmHg 84%
    01:00 +14°C° 0 mm 4 mps 763 mmHg 85%
    02:00 +13°C° 0 mm 4 mps 763 mmHg 85%
    03:00 +13°C° 0 mm 3 mps 764 mmHg 86%
    04:00 +13°C° 0 mm 3 mps 764 mmHg 84%
    05:00 +14°C° 0 mm 3 mps 764 mmHg 82%
    06:00 +14°C° 0 mm 3 mps 765 mmHg 80%
    07:00 +16°C° 0 mm 3 mps 765 mmHg 74%
    08:00 +18°C° 0 mm 4 mps 765 mmHg 68%
    09:00 +19°C° 0 mm 4 mps 766 mmHg 62%
    10:00 +20°C° 0.1 mm 5 mps 766 mmHg 60%
    11:00 +20°C° 0.1 mm 5 mps 766 mmHg 57%
    12:00 +21°C° 0.1 mm 5 mps 766 mmHg 54%
    13:00 +21°C° 0 mm 5 mps 767 mmHg 55%
    14:00 +21°C° 0 mm 5 mps 767 mmHg 55%
    15:00 +20°C° 0 mm 5 mps 767 mmHg 55%
    16:00 +19°C° 0 mm 4 mps 767 mmHg 59%
    17:00 +18°C° 0 mm 3 mps 767 mmHg 63%
    18:00 +17°C° 0 mm 2 mps 768 mmHg 67%
    19:00 +16°C° 0 mm 2 mps 768 mmHg 70%
    20:00 +15°C° 0 mm 2 mps 769 mmHg 72%
    21:00 +14°C° 0 mm 1 mps 769 mmHg 74%
    22:00 +14°C° 0 mm 1 mps 769 mmHg 75%
    23:00 +13°C° 0 mm 1 mps 769 mmHg 76%

    21 August, Wednesday

    Time Temperature Precipitation Wind Pressure Humidity
    00:00 +13°C° 0 mm 1 mps 769 mmHg 77%
    01:00 +13°C° 0 mm 1 mps 770 mmHg 78%
    02:00 +13°C° 0 mm 2 mps 770 mmHg 80%
    03:00 +13°C° 0 mm 2 mps 770 mmHg 81%
    04:00 +13°C° 0 mm 2 mps 770 mmHg 81%
    05:00 +13°C° 0 mm 2 mps 770 mmHg 82%
    06:00 +14°C° 0 mm 2 mps 770 mmHg 82%
    07:00 +15°C° 0 mm 2 mps 770 mmHg 76%
    08:00 +17°C° 0 mm 2 mps 770 mmHg 70%
    09:00 +19°C° 0 mm 2 mps 770 mmHg 64%
    10:00 +20°C° 0 mm 2 mps 770 mmHg 60%
    11:00 +21°C° 0 mm 2 mps 770 mmHg 56%
    12:00 +22°C° 0 mm 1 mps 770 mmHg 53%
    13:00 +23°C° 0 mm 1 mps 770 mmHg 52%
    14:00 +23°C° 0 mm 1 mps 770 mmHg 52%
    15:00 +23°C° 0 mm 1 mps 769 mmHg 51%
    16:00 +22°C° 0 mm 1 mps 769 mmHg 55%
    17:00 +21°C° 0 mm 1 mps 769 mmHg 60%
    18:00 +21°C° 0 mm 1 mps 769 mmHg 65%
    19:00 +19°C° 0 mm 1 mps 769 mmHg 67%
    20:00 +17°C° 0 mm 2 mps 769 mmHg 70%
    21:00 +16°C° 0 mm 2 mps 769 mmHg 72%
    22:00 +15°C° 0 mm 2 mps 769 mmHg 73%
    23:00 +15°C° 0 mm 2 mps 769 mmHg 74%

    22 August, Thursday

    Time Temperature Precipitation Wind Pressure Humidity
    00:00 +14°C° 0 mm 2 mps 769 mmHg 75%
    01:00 +14°C° 0 mm 2 mps 769 mmHg 74%
    02:00 +14°C° 0 mm 2 mps 768 mmHg 74%
    03:00 +13°C° 0 mm 2 mps 768 mmHg 74%
    04:00 +14°C° 0 mm 2 mps 768 mmHg 74%
    05:00 +14°C° 0 mm 2 mps 768 mmHg 73%
    06:00 +15°C° 0 mm 2 mps 768 mmHg 73%
    07:00 +17°C° 0 mm 2 mps 768 mmHg 67%
    08:00 +18°C° 0 mm 2 mps 768 mmHg 61%
    09:00 +20°C° 0 mm 2 mps 768 mmHg 55%
    10:00 +21°C° 0 mm 2 mps 768 mmHg 52%
    11:00 +24°C° 0 mm 2 mps 768 mmHg 50%
    12:00 +25°C° 0 mm 2 mps 768 mmHg 48%
    13:00 +25°C° 0 mm 3 mps 768 mmHg 49%
    14:00 +24°C° 0 mm 3 mps 768 mmHg 50%
    15:00 +23°C° 0 mm 4 mps 767 mmHg 51%
    16:00 +22°C° 0 mm 3 mps 768 mmHg 55%
    17:00 +20°C° 0 mm 3 mps 768 mmHg 59%
    18:00 +19°C° 0 mm 2 mps 768 mmHg 62%
    19:00 +18°C° 0 mm 2 mps 768 mmHg 64%
    20:00 +16°C° 0 mm 2 mps 768 mmHg 66%
    21:00 +15°C° 0 mm 1 mps 769 mmHg 67%
    22:00 +14°C° 0 mm 1 mps 769 mmHg 70%
    23:00 +14°C° 0 mm 1 mps 769 mmHg 73%

    23 August, Friday

    Time Temperature Precipitation Wind Pressure Humidity
    00:00 +13°C° 0 mm 1 mps 769 mmHg 75%
    01:00 +13°C° 0 mm 1 mps 769 mmHg 76%
    02:00 +13°C° 0 mm 1 mps 769 mmHg 77%
    03:00 +12°C° 0 mm 1 mps 768 mmHg 78%
    04:00 +13°C° 0 mm 1 mps 769 mmHg 78%
    05:00 +14°C° 0 mm 1 mps 769 mmHg 77%
    06:00 +14°C° 0 mm 1 mps 769 mmHg 77%
    07:00 +16°C° 0 mm 1 mps 769 mmHg 71%
    08:00 +19°C° 0 mm 1 mps 769 mmHg 65%
    09:00 +21°C° 0 mm 1 mps 769 mmHg 59%
    10:00 +22°C° 0 mm 1 mps 769 mmHg 54%
    11:00 +24°C° 0 mm 1 mps 769 mmHg 48%
    12:00 +25°C° 0 mm 1 mps 768 mmHg 43%
    13:00 +26°C° 0 mm 1 mps 768 mmHg 43%
    14:00 +26°C° 0 mm 1 mps 768 mmHg 43%
    15:00 +26°C° 0 mm 2 mps 767 mmHg 43%
    16:00 +25°C° 0 mm 2 mps 767 mmHg 49%
    17:00 +24°C° 0 mm 2 mps 767 mmHg 54%
    18:00 +21°C° 0 mm 2 mps 767 mmHg 60%
    19:00 +20°C° 0 mm 2 mps 767 mmHg 61%
    20:00 +19°C° 0 mm 3 mps 767 mmHg 62%
    21:00 +18°C° 0 mm 3 mps 767 mmHg 64%
    22:00 +18°C° 0 mm 3 mps 767 mmHg 63%
    23:00 +17°C° 0 mm 3 mps 766 mmHg 63%
    Show more